Overview Statistics Trail Chart Weather Telemetry Raw packets
 

This is the latest recevied weather packets stored in our database for station/object IU3OVK-13. If no packets are shown the sender has not sent any weather packets the latest 10 day(s).

<< 34 35 36 37 38 39 40 >>
Time Temp. Humidity Pressure Rain* Wind** Luminosity Snow
1787920838 32.78° C 99% 1006.6 hPa - - - -
1787920218 31.67° C 99% 1007.5 hPa - - - -
1787919598 35.56° C 99% 1006.2 hPa - - - -
1787918977 35° C 99% 1007 hPa - - - -
1787918357 35° C 99% 1006.6 hPa - - - -
1787917737 34.44° C 99% 1007.2 hPa - - - -
1787916497 33.33° C 99% 1007.6 hPa - - - -
1787915876 33.89° C 99% 1007.3 hPa - - - -
1787915256 38.89° C 99% 1006.5 hPa - - - -
1787914636 39.44° C 99% 1007.3 hPa - - - -
1787914016 41.67° C 95% 1003.6 hPa - - - -
1787913395 41.67° C 94% 1004.2 hPa - - - -
1787912775 40.56° C 99% 1005.8 hPa - - - -
1787912155 42.78° C 89% 1003.9 hPa - - - -
1787911535 42.78° C 87% 1004.4 hPa - - - -
1787910915 41.67° C 88% 1005.4 hPa - - - -
1787909675 42.22° C 90% 1005.5 hPa - - - -
1787909054 41.67° C 95% 1006.1 hPa - - - -
1787908434 39.44° C 97% 1009.1 hPa - - - -
1787907814 40.56° C 97% 1007.1 hPa - - - -
1787907193 41.67° C 92% 1003.9 hPa - - - -
1787906573 41.67° C 94% 1006.8 hPa - - - -
1787905953 42.22° C 99% 1003.9 hPa - - - -
1787905333 41.11° C 99% 1005.1 hPa - - - -
1787904713 38.33° C 99% 1007.5 hPa - - - -

* Rain since midnight (hover to see other rain measurements)
** Current wind speed in m/s (hover to see current wind gust speed)